Time,TemperatureF,DewpointF,PressureIn,WindDirection,WindDirectionDegrees,WindSpeedMPH,WindSpeedGustMPH,Humidity,HourlyPrecipIn,Conditions,Clouds,dailyrainin,SoftwareType,DateUTC
2013-02-23 00:01:00,37.0,34.0,0.00,ENE,71,0.0,-999.0,90,-99.99,,,0.00,weatherlink.com 1.10,2013-02-23 05:01:00,
2013-02-23 00:16:00,36.9,34.0,0.00,ENE,69,0.0,-999.0,90,-99.99,,,0.00,weatherlink.com 1.10,2013-02-23 05:16:00,
2013-02-23 00:31:00,37.1,35.0,0.00,ENE,64,0.0,-999.0,90,-99.99,,,0.00,weatherlink.com 1.10,2013-02-23 05:31:00,
2013-02-23 00:46:00,36.9,34.0,0.00,ENE,60,0.0,-999.0,90,-99.99,,,0.00,weatherlink.com 1.10,2013-02-23 05:46:00,
2013-02-23 01:01:00,36.9,34.0,0.00,East,88,0.0,-999.0,90,-99.99,,,0.00,weatherlink.com 1.10,2013-02-23 06:01:00,
2013-02-23 01:16:00,37.4,35.0,0.00,East,97,0.0,-999.0,91,-99.99,,,0.00,weatherlink.com 1.10,2013-02-23 06:16:00,
2013-02-23 01:31:00,36.8,34.0,0.00,East,97,0.0,-999.0,90,-99.99,,,0.00,weatherlink.com 1.10,2013-02-23 06:31:00,
2013-02-23 01:46:00,36.8,34.0,0.00,East,97,0.0,-999.0,90,-99.99,,,0.00,weatherlink.com 1.10,2013-02-23 06:46:00,
2013-02-23 02:01:00,37.0,34.0,0.00,ESE,120,0.0,-999.0,90,-99.99,,,0.00,weatherlink.com 1.10,2013-02-23 07:01:00,
2013-02-23 02:16:00,37.0,34.0,0.00,NNE,33,0.0,-999.0,90,-99.99,,,0.00,weatherlink.com 1.10,2013-02-23 07:16:00,
2013-02-23 02:31:00,37.1,33.0,0.00,SSE,155,2.0,-999.0,86,-99.99,,,0.00,weatherlink.com 1.10,2013-02-23 07:31:00,
2013-02-23 02:46:00,37.4,33.0,0.00,ENE,62,3.0,-999.0,84,-99.99,,,0.00,weatherlink.com 1.10,2013-02-23 07:46:00,
2013-02-23 03:01:00,36.9,33.0,0.00,ENE,67,4.0,-999.0,84,-99.99,,,0.00,weatherlink.com 1.10,2013-02-23 08:01:00,
2013-02-23 03:16:00,36.8,32.0,0.00,ENE,71,5.0,-999.0,84,-99.99,,,0.00,weatherlink.com 1.10,2013-02-23 08:16:00,
2013-02-23 03:31:00,36.6,32.0,0.00,NNE,28,0.0,-999.0,84,-99.99,,,0.00,weatherlink.com 1.10,2013-02-23 08:31:00,
2013-02-23 03:46:00,36.7,33.0,0.00,West,281,3.0,-999.0,85,-99.99,,,0.00,weatherlink.com 1.10,2013-02-23 08:46:00,
2013-02-23 04:01:00,36.6,32.0,0.00,WNW,300,1.0,-999.0,84,-99.99,,,0.00,weatherlink.com 1.10,2013-02-23 09:01:00,
2013-02-23 04:16:00,36.6,32.0,0.00,NNW,346,4.0,-999.0,84,-99.99,,,0.00,weatherlink.com 1.10,2013-02-23 09:16:00,
2013-02-23 04:31:00,36.4,32.0,0.00,WNW,290,3.0,-999.0,83,-99.99,,,0.00,weatherlink.com 1.10,2013-02-23 09:31:00,
2013-02-23 04:47:00,36.0,31.0,0.00,West,278,4.0,-999.0,83,-99.99,,,0.00,weatherlink.com 1.10,2013-02-23 09:47:00,
2013-02-23 05:02:00,35.9,31.0,0.00,East,80,0.0,-999.0,83,-99.99,,,0.00,weatherlink.com 1.10,2013-02-23 10:02:00,
2013-02-23 05:17:00,35.7,31.0,0.00,WNW,296,0.0,-999.0,83,-99.99,,,0.00,weatherlink.com 1.10,2013-02-23 10:17:00,
2013-02-23 05:32:00,35.6,31.0,0.00,WSW,240,3.0,-999.0,83,-99.99,,,0.00,weatherlink.com 1.10,2013-02-23 10:32:00,
2013-02-23 05:47:00,35.2,30.0,0.00,NNE,15,1.0,-999.0,82,-99.99,,,0.00,weatherlink.com 1.10,2013-02-23 10:47:00,
2013-02-23 06:02:00,35.2,30.0,0.00,West,274,3.0,-999.0,82,-99.99,,,0.00,weatherlink.com 1.10,2013-02-23 11:02:00,
2013-02-23 06:17:00,35.0,30.0,0.00,NE,44,1.0,-999.0,82,-99.99,,,0.00,weatherlink.com 1.10,2013-02-23 11:17:00,
2013-02-23 06:32:00,34.8,29.0,0.00,West,273,5.0,-999.0,80,-99.99,,,0.00,weatherlink.com 1.10,2013-02-23 11:32:00,
2013-02-23 06:47:00,34.8,29.0,0.00,NNW,346,6.0,-999.0,80,-99.99,,,0.00,weatherlink.com 1.10,2013-02-23 11:47:00,
2013-02-23 07:02:00,34.3,28.0,0.00,East,79,8.0,-999.0,79,-99.99,,,0.00,weatherlink.com 1.10,2013-02-23 12:02:00,
2013-02-23 07:17:00,33.9,27.0,0.00,East,84,5.0,-999.0,77,-99.99,,,0.00,weatherlink.com 1.10,2013-02-23 12:17:00,
2013-02-23 07:32:00,33.9,27.0,0.00,ESE,102,4.0,-999.0,76,-99.99,,,0.00,weatherlink.com 1.10,2013-02-23 12:32:00,
2013-02-23 07:47:00,33.8,27.0,0.00,SE,140,2.0,-999.0,77,-99.99,,,0.00,weatherlink.com 1.10,2013-02-23 12:47:00,
2013-02-23 08:02:00,33.6,27.0,0.00,NW,320,3.0,-999.0,77,-99.99,,,0.00,weatherlink.com 1.10,2013-02-23 13:02:00,
2013-02-23 08:17:00,33.5,27.0,0.00,South,187,0.0,-999.0,76,-99.99,,,0.00,weatherlink.com 1.10,2013-02-23 13:17:00,
2013-02-23 08:32:00,33.5,27.0,0.00,ENE,68,1.0,-999.0,77,-99.99,,,0.00,weatherlink.com 1.10,2013-02-23 13:32:00,
2013-02-23 08:47:00,33.3,27.0,0.00,ESE,106,3.0,-999.0,77,-99.99,,,0.00,weatherlink.com 1.10,2013-02-23 13:47:00,
2013-02-23 09:02:00,34.3,27.0,0.00,WNW,283,3.0,-999.0,76,-99.99,,,0.00,weatherlink.com 1.10,2013-02-23 14:02:00,
2013-02-23 09:17:00,34.8,27.0,0.00,SE,133,2.0,-999.0,73,-99.99,,,0.00,weatherlink.com 1.10,2013-02-23 14:17:00,
2013-02-23 09:32:00,35.0,28.0,0.00,ENE,71,2.0,-999.0,74,-99.99,,,0.00,weatherlink.com 1.10,2013-02-23 14:32:00,
2013-02-23 09:47:00,33.3,26.0,0.00,SE,136,5.0,-999.0,75,-99.99,,,0.00,weatherlink.com 1.10,2013-02-23 14:47:00,
2013-02-23 10:02:00,34.9,27.0,0.00,WNW,285,1.0,-999.0,74,-99.99,,,0.00,weatherlink.com 1.10,2013-02-23 15:02:00,
2013-02-23 10:17:00,35.3,28.0,0.00,North,11,2.0,-999.0,75,-99.99,,,0.00,weatherlink.com 1.10,2013-02-23 15:17:00,
2013-02-23 10:32:00,36.1,28.0,0.00,West,274,4.0,-999.0,71,-99.99,,,0.00,weatherlink.com 1.10,2013-02-23 15:32:00,
2013-02-23 10:47:00,36.5,27.0,0.00,West,263,3.0,-999.0,69,-99.99,,,0.00,weatherlink.com 1.10,2013-02-23 15:47:00,
2013-02-23 11:02:00,37.2,27.0,0.00,WNW,290,3.0,-999.0,67,-99.99,,,0.00,weatherlink.com 1.10,2013-02-23 16:02:00,
2013-02-23 11:17:00,37.7,27.0,0.00,ESE,102,4.0,-999.0,65,-99.99,,,0.00,weatherlink.com 1.10,2013-02-23 16:17:00,
2013-02-23 11:32:00,38.4,27.0,0.00,NNW,346,0.0,-999.0,65,-99.99,,,0.00,weatherlink.com 1.10,2013-02-23 16:32:00,
2013-02-23 11:47:00,38.5,27.0,0.00,WSW,258,4.0,-999.0,64,-99.99,,,0.00,weatherlink.com 1.10,2013-02-23 16:47:00,
2013-02-23 12:02:00,39.1,27.0,0.00,NE,54,2.0,-999.0,61,-99.99,,,0.00,weatherlink.com 1.10,2013-02-23 17:02:00,
2013-02-23 12:17:00,39.3,26.0,0.00,WNW,293,3.0,-999.0,59,-99.99,,,0.00,weatherlink.com 1.10,2013-02-23 17:17:00,
2013-02-23 12:32:00,39.2,27.0,0.00,WSW,250,4.0,-999.0,61,-99.99,,,0.00,weatherlink.com 1.10,2013-02-23 17:32:00,
2013-02-23 12:47:00,40.5,26.0,0.00,West,276,5.0,-999.0,56,-99.99,,,0.00,weatherlink.com 1.10,2013-02-23 17:47:00,
2013-02-23 13:02:00,41.3,26.0,0.00,East,99,5.0,-999.0,54,-99.99,,,0.00,weatherlink.com 1.10,2013-02-23 18:02:00,
2013-02-23 13:17:00,42.1,26.0,0.00,ESE,113,4.0,-999.0,53,-99.99,,,0.00,weatherlink.com 1.10,2013-02-23 18:17:00,
2013-02-23 13:32:00,41.2,25.0,0.00,ENE,72,2.0,-999.0,53,-99.99,,,0.00,weatherlink.com 1.10,2013-02-23 18:32:00,
2013-02-23 13:47:00,42.0,25.0,0.00,NNE,21,5.0,-999.0,51,-99.99,,,0.00,weatherlink.com 1.10,2013-02-23 18:47:00,
2013-02-23 14:02:00,41.3,26.0,0.00,ENE,58,5.0,-999.0,54,-99.99,,,0.00,weatherlink.com 1.10,2013-02-23 19:02:00,
2013-02-23 14:17:00,42.4,25.0,0.00,NE,53,1.0,-999.0,51,-99.99,,,0.00,weatherlink.com 1.10,2013-02-23 19:17:00,
2013-02-23 14:32:00,42.2,24.0,0.00,East,97,5.0,-999.0,49,-99.99,,,0.00,weatherlink.com 1.10,2013-02-23 19:32:00,
2013-02-23 14:47:00,42.9,25.0,0.00,SSW,193,6.0,-999.0,49,-99.99,,,0.00,weatherlink.com 1.10,2013-02-23 19:47:00,
2013-02-23 15:02:00,43.1,24.0,0.00,ENE,78,7.0,-999.0,48,-99.99,,,0.00,weatherlink.com 1.10,2013-02-23 20:02:00,
2013-02-23 15:17:00,43.3,29.0,0.00,SSE,161,5.0,-999.0,58,-99.99,,,0.00,weatherlink.com 1.10,2013-02-23 20:17:00,
2013-02-23 15:32:00,43.6,25.0,0.00,West,263,2.0,-999.0,49,-99.99,,,0.00,weatherlink.com 1.10,2013-02-23 20:32:00,
2013-02-23 15:48:00,43.0,24.0,0.00,East,99,9.0,-999.0,47,-99.99,,,0.00,weatherlink.com 1.10,2013-02-23 20:48:00,
2013-02-23 16:03:00,43.2,25.0,0.00,ENE,77,13.0,-999.0,49,-99.99,,,0.00,weatherlink.com 1.10,2013-02-23 21:03:00,
2013-02-23 16:18:00,43.4,25.0,0.00,East,98,4.0,-999.0,49,-99.99,,,0.00,weatherlink.com 1.10,2013-02-23 21:18:00,
2013-02-23 16:33:00,43.2,25.0,0.00,East,79,7.0,-999.0,48,-99.99,,,0.00,weatherlink.com 1.10,2013-02-23 21:33:00,
2013-02-23 16:48:00,43.3,25.0,0.00,East,88,7.0,-999.0,49,-99.99,,,0.00,weatherlink.com 1.10,2013-02-23 21:48:00,
2013-02-23 17:03:00,44.7,26.0,0.00,West,273,3.0,-999.0,48,-99.99,,,0.00,weatherlink.com 1.10,2013-02-23 22:03:00,
2013-02-23 17:18:00,45.0,26.0,0.00,ENE,74,3.0,-999.0,47,-99.99,,,0.00,weatherlink.com 1.10,2013-02-23 22:18:00,
2013-02-23 17:33:00,43.8,25.0,0.00,ENE,67,1.0,-999.0,48,-99.99,,,0.00,weatherlink.com 1.10,2013-02-23 22:33:00,
2013-02-23 17:48:00,43.7,26.0,0.00,ENE,78,8.0,-999.0,50,-99.99,,,0.00,weatherlink.com 1.10,2013-02-23 22:48:00,
2013-02-23 18:03:00,42.9,26.0,0.00,SE,131,6.0,-999.0,51,-99.99,,,0.00,weatherlink.com 1.10,2013-02-23 23:03:00,
2013-02-23 18:18:00,42.8,31.0,0.00,WNW,300,3.0,-999.0,63,-99.99,,,0.00,weatherlink.com 1.10,2013-02-23 23:18:00,
2013-02-23 18:34:00,41.4,27.0,0.00,North,4,2.0,-999.0,57,-99.99,,,0.00,weatherlink.com 1.10,2013-02-23 23:34:00,
2013-02-23 18:48:00,40.8,26.0,0.00,NNW,347,3.0,-999.0,57,-99.99,,,0.00,weatherlink.com 1.10,2013-02-23 23:48:00,
2013-02-23 19:03:00,40.4,28.0,0.00,West,267,4.0,-999.0,61,-99.99,,,0.00,weatherlink.com 1.10,2013-02-24 00:03:00,
2013-02-23 19:18:00,39.8,25.0,0.00,North,10,2.0,-999.0,56,-99.99,,,0.00,weatherlink.com 1.10,2013-02-24 00:18:00,
2013-02-23 19:33:00,39.4,25.0,0.00,NE,47,2.0,-999.0,57,-99.99,,,0.00,weatherlink.com 1.10,2013-02-24 00:33:00,
2013-02-23 19:48:00,38.8,25.0,0.00,North,2,2.0,-999.0,57,-99.99,,,0.00,weatherlink.com 1.10,2013-02-24 00:48:00,
2013-02-23 20:03:00,38.6,25.0,0.00,WNW,291,1.0,-999.0,59,-99.99,,,0.00,weatherlink.com 1.10,2013-02-24 01:03:00,
2013-02-23 20:18:00,38.1,25.0,0.00,North,11,0.0,-999.0,60,-99.99,,,0.00,weatherlink.com 1.10,2013-02-24 01:18:00,
2013-02-23 20:33:00,38.2,27.0,0.00,SE,125,4.0,-999.0,64,-99.99,,,0.00,weatherlink.com 1.10,2013-02-24 01:33:00,
2013-02-23 20:48:00,37.6,25.0,0.00,West,269,3.0,-999.0,61,-99.99,,,0.00,weatherlink.com 1.10,2013-02-24 01:48:00,
2013-02-23 21:03:00,37.1,25.0,0.00,NE,37,4.0,-999.0,62,-99.99,,,0.00,weatherlink.com 1.10,2013-02-24 02:03:00,
2013-02-23 21:18:00,36.9,26.0,0.00,WNW,293,2.0,-999.0,64,-99.99,,,0.00,weatherlink.com 1.10,2013-02-24 02:18:00,
2013-02-23 21:33:00,36.7,25.0,0.00,NNW,340,2.0,-999.0,63,-99.99,,,0.00,weatherlink.com 1.10,2013-02-24 02:33:00,
2013-02-23 21:48:00,36.4,25.0,0.00,NNE,13,0.0,-999.0,64,-99.99,,,0.00,weatherlink.com 1.10,2013-02-24 02:48:00,
2013-02-23 22:03:00,36.3,25.0,0.00,East,98,5.0,-999.0,64,-99.99,,,0.00,weatherlink.com 1.10,2013-02-24 03:03:00,
2013-02-23 22:18:00,35.7,25.0,0.00,ENE,64,7.0,-999.0,66,-99.99,,,0.00,weatherlink.com 1.10,2013-02-24 03:18:00,
2013-02-23 22:33:00,35.5,25.0,0.00,NE,55,2.0,-999.0,66,-99.99,,,0.00,weatherlink.com 1.10,2013-02-24 03:33:00,
2013-02-23 22:48:00,35.4,25.0,0.00,ENE,72,4.0,-999.0,67,-99.99,,,0.00,weatherlink.com 1.10,2013-02-24 03:48:00,
2013-02-23 23:03:00,35.2,25.0,0.00,East,81,9.0,-999.0,67,-99.99,,,0.00,weatherlink.com 1.10,2013-02-24 04:03:00,
2013-02-23 23:18:00,35.0,25.0,0.00,ENE,75,6.0,-999.0,67,-99.99,,,0.00,weatherlink.com 1.10,2013-02-24 04:18:00,
2013-02-23 23:33:00,34.9,25.0,0.00,East,87,9.0,-999.0,67,-99.99,,,0.00,weatherlink.com 1.10,2013-02-24 04:33:00,
2013-02-23 23:48:00,34.7,25.0,0.00,East,99,9.0,-999.0,68,-99.99,,,0.00,weatherlink.com 1.10,2013-02-24 04:48:00,